DLH959 YMML-YPAD

Flight info

Callsign DLH959
Flight time N/A
Altitude 40000
Route PEDNI H345 DRINA
Aircraft A339/H-SADE1E2E3GHIJ3J5M1P2RWXY/LB2D1

Departure

Time 2026-05-06 12:18
Airport Melbourne Airport (YMML)

Arrival

Time N/A
Airport Adelaide International Airport (YPAD)
Time Latitude Longitude Altitude Speed Heading
2026-05-06 11:46 -37.66909 144.84515 366 ft 0 kts 11°
2026-05-06 11:49 -37.66909 144.84514 366 ft 0 kts 11°
2026-05-06 11:51 -37.66910 144.84514 366 ft 0 kts 11°
2026-05-06 11:58 -37.66911 144.84514 366 ft 0 kts 11°
2026-05-06 12:06 -37.66912 144.84514 366 ft 0 kts 12°
2026-05-06 12:09 -37.66913 144.84514 366 ft 2 kts 14°
2026-05-06 12:09 -37.66917 144.84512 367 ft 1 kts 10°
2026-05-06 12:10 -37.66931 144.84508 369 ft 1 kts
2026-05-06 12:10 -37.66941 144.84507 367 ft 1 kts 12°
2026-05-06 12:10 -37.66956 144.84503 370 ft 3 kts 13°
2026-05-06 12:10 -37.66976 144.84496 369 ft 5 kts 11°
2026-05-06 12:11 -37.67008 144.84501 372 ft 3 kts 290°
2026-05-06 12:11 -37.67013 144.84518 369 ft 0 kts 264°
2026-05-06 12:13 -37.67013 144.84517 370 ft 1 kts 264°
2026-05-06 12:13 -37.67014 144.84510 369 ft 1 kts 262°
2026-05-06 12:13 -37.67015 144.84503 370 ft 1 kts 261°
2026-05-06 12:14 -37.67017 144.84493 372 ft 2 kts 257°
2026-05-06 12:14 -37.67032 144.84438 370 ft 11 kts 249°
2026-05-06 12:14 -37.67052 144.84349 378 ft 0 kts 259°
2026-05-06 12:14 -37.67053 144.84340 378 ft 7 kts 259°
2026-05-06 12:15 -37.67007 144.84223 378 ft 21 kts 329°
2026-05-06 12:15 -37.66853 144.84205 380 ft 25 kts 352°
2026-05-06 12:15 -37.66705 144.84242 378 ft 25 kts 61°
2026-05-06 12:15 -37.66680 144.84409 370 ft 27 kts 82°
2026-05-06 12:16 -37.66653 144.84622 359 ft 18 kts 82°
2026-05-06 12:16 -37.66606 144.84780 348 ft 12 kts 34°
2026-05-06 12:16 -37.66563 144.84797 351 ft 9 kts
2026-05-06 12:16 -37.66508 144.84788 337 ft 18 kts 349°
2026-05-06 12:17 -37.66378 144.84780 333 ft 7 kts
2026-05-06 12:17 -37.66338 144.84780 333 ft 0 kts
2026-05-06 12:17 -37.66336 144.84780 333 ft 5 kts
2026-05-06 12:17 -37.66230 144.84718 353 ft 13 kts 294°
2026-05-06 12:18 -37.66205 144.84438 358 ft 64 kts 274°
2026-05-06 12:18 -37.66155 144.83587 407 ft 128 kts 274°
2026-05-06 12:18 -37.66078 144.82283 541 ft 161 kts 275°
2026-05-06 12:18 -37.65965 144.80889 1238 ft 156 kts 274°
2026-05-06 12:19 -37.65853 144.79572 1776 ft 156 kts 273°
2026-05-06 12:19 -37.65752 144.78182 2280 ft 162 kts 270°
2026-05-06 12:19 -37.65681 144.76676 2729 ft 185 kts 271°
2026-05-06 12:19 -37.65571 144.74972 3306 ft 204 kts 272°
2026-05-06 12:20 -37.65444 144.73102 3687 ft 223 kts 272°
2026-05-06 12:20 -37.65308 144.71133 3960 ft 225 kts 272°
2026-05-06 12:20 -37.65175 144.69150 4396 ft 226 kts 271°
2026-05-06 12:20 -37.65046 144.67227 5236 ft 221 kts 271°
2026-05-06 12:21 -37.64809 144.65292 5923 ft 225 kts 280°
2026-05-06 12:21 -37.64308 144.63403 6643 ft 228 kts 289°
2026-05-06 12:21 -37.62048 144.56472 9132 ft 233 kts 289°
2026-05-06 12:21 -37.59662 144.48917 12095 ft 224 kts 289°
2026-05-06 12:22 -37.57382 144.41693 14880 ft 222 kts 289°
2026-05-06 12:22 -37.55019 144.34391 17140 ft 227 kts 290°
2026-05-06 12:22 -37.52637 144.26959 19281 ft 231 kts 290°
2026-05-06 12:22 -37.50081 144.19397 21031 ft 240 kts 289°
2026-05-06 12:23 -37.47536 144.11462 22834 ft 248 kts 289°
2026-05-06 12:23 -37.44625 144.02477 23338 ft 305 kts 290°
2026-05-06 12:23 -37.41264 143.92257 24861 ft 327 kts 290°
2026-05-06 12:23 -37.37719 143.81427 26565 ft 340 kts 290°
2026-05-06 12:24 -37.34034 143.70282 28128 ft 353 kts 290°
2026-05-06 12:24 -37.30192 143.58675 29595 ft 369 kts 290°
2026-05-06 12:24 -37.26126 143.46534 30816 ft 384 kts 290°
2026-05-06 12:24 -37.21922 143.33965 32182 ft 394 kts 290°
2026-05-06 12:25 -37.17716 143.21040 33172 ft 405 kts 288°
2026-05-06 12:25 -37.13714 143.07696 33959 ft 411 kts 289°
2026-05-06 12:25 -37.09647 142.94426 34619 ft 414 kts 289°
2026-05-06 12:25 -37.05519 142.80994 35422 ft 413 kts 288°
2026-05-06 12:26 -37.01371 142.67540 36100 ft 414 kts 288°
2026-05-06 12:26 -36.97189 142.54126 36925 ft 412 kts 288°
2026-05-06 12:26 -36.93016 142.40850 37598 ft 411 kts 288°
2026-05-06 12:26 -36.88920 142.27809 38490 ft 407 kts 288°
2026-05-06 12:27 -36.84772 142.14634 39144 ft 405 kts 288°
2026-05-06 12:27 -36.80625 142.01487 39584 ft 407 kts 288°
2026-05-06 12:27 -36.76433 141.88312 40037 ft 408 kts 288°
2026-05-06 12:27 -36.72213 141.75140 40291 ft 408 kts 288°
2026-05-06 12:28 -36.63749 141.48865 40263 ft 411 kts 288°
2026-05-06 12:28 -36.55199 141.22559 40302 ft 410 kts 288°
2026-05-06 12:29 -36.46650 140.96490 40259 ft 410 kts 288°
2026-05-06 12:29 -36.36985 140.70704 40283 ft 418 kts 300°
2026-05-06 12:30 -36.22575 140.47844 40282 ft 423 kts 303°
2026-05-06 12:30 -36.07997 140.25044 40319 ft 424 kts 303°
2026-05-06 12:31 -35.99555 140.11867 40282 ft 426 kts 303°